Simultaneous Nadir Overpasses (SNOs) Predictions

Prediction of SNOs near equator between AQUA and NPP Satellite Orbit:

Table of predicted SNOs near equator for the next 14.0 days since TLE Epoch: 12/28/2013
Index Date (AQUA) Time (AQUA) AQUA Lat,Lon Date (NPP) Time (NPP) NPP Lat,Lon Distance(km) Time Diff (sec)
1 12/28/2013 14:54:10 29.95, -24.36 12/28/2013 14:44:12 29.99, -24.33 5.08 598
2 12/28/2013 15:37:42 -8.84, 148.22 12/28/2013 15:28:52 -8.84, 148.22 0.54 530
3 12/28/2013 16:24:07 -2.40, -41.76 12/28/2013 16:16:29 -2.46, -41.94 21.65 458
4 12/28/2013 17:12:14 6.94, 126.87 12/28/2013 17:05:52 7.03, 126.42 50.81 382
5 12/28/2013 18:00:29 -11.52, -64.51 12/28/2013 17:55:22 -11.68, -65.22 78.94 307
6 12/31/2013 07:09:06 24.39, 92.92 12/31/2013 06:59:35 24.38, 92.93 0.81 571
7 12/31/2013 07:51:52 -0.47, -94.10 12/31/2013 07:43:28 -0.45, -94.12 2.91 504
8 12/31/2013 08:40:06 -4.18, 74.51 12/31/2013 08:32:58 -4.21, 74.22 31.95 428
9 12/31/2013 09:28:14 8.66,-116.87 12/31/2013 09:22:21 8.78,-117.41 60.87 353
10 12/31/2013 10:16:29 -13.24, 51.75 12/31/2013 10:11:51 -13.43, 50.96 88.49 278
11 01/02/2014 23:23:21 16.37,-149.32 01/02/2014 23:14:17 16.37,-149.33 0.54 544
12 01/03/2014 00:07:49 1.40, 22.18 01/02/2014 23:59:55 1.41, 22.07 12.93 474
13 01/03/2014 00:56:05 -5.93,-169.23 01/03/2014 00:49:26 -6.02,-169.60 42.25 399
14 01/03/2014 01:44:11 10.53, -0.58 01/03/2014 01:38:48 10.64, -1.22 70.84 323
15 01/03/2014 02:32:27 -15.04, 168.04 01/03/2014 02:28:19 -15.23, 167.15 97.84 248
16 01/05/2014 14:54:04 -29.98, 155.67 01/05/2014 14:44:19 -29.98, 155.68 1.48 585
17 01/05/2014 15:36:44 5.23, -31.00 01/05/2014 15:28:06 5.23, -30.99 1.15 518
18 01/05/2014 16:23:47 3.18, 138.45 01/05/2014 16:16:23 3.21, 138.24 23.65 444
19 01/05/2014 17:12:02 -7.76, -52.94 01/05/2014 17:05:53 -7.87, -53.41 52.72 369
20 01/05/2014 18:00:09 12.30, 115.70 01/05/2014 17:55:16 12.44, 114.97 80.84 293
21 01/08/2014 07:08:19 -22.12, -86.49 01/08/2014 06:59:02 -22.12, -86.48 0.52 557
22 01/08/2014 07:51:35 -0.50, 86.12 01/08/2014 07:43:26 -0.50, 86.07 4.93 489
23 01/08/2014 08:39:43 4.98,-105.27 01/08/2014 08:32:49 5.06,-105.57 34.56 414
24 01/08/2014 09:27:57 -9.62, 63.35 01/08/2014 09:22:19 -9.73, 62.78 63.22 338
25 01/08/2014 10:16:05 14.10,-128.01 01/08/2014 10:11:42 14.29,-128.83 90.75 263
26 01/10/2014 22:37:33 29.96,-140.19 01/10/2014 22:27:34 29.98,-140.11 8.81 599
27 01/10/2014 23:22:14 -13.00, 31.49 01/10/2014 23:13:25 -13.01, 31.48 0.44 529
28 01/11/2014 00:07:30 -2.38,-157.59 01/10/2014 23:59:52 -2.41,-157.73 16.03 458
29 01/11/2014 00:55:38 6.87, 11.03 01/11/2014 00:49:15 6.97, 10.63 45.42 383
30 01/11/2014 01:43:52 -11.50, 179.66 01/11/2014 01:38:45 -11.63, 178.99 73.66 307




NCC Satellite Simultaneous Nadir Overpasses (SNOs) Prediction Service
